Location: Hungerford
(51.4167°N, 1.5167°W)
Time: 08:45:33
(UTC+00:00)

Cosmos 1048 Rocket - Pass Details

Date: 19 January 2021
Orbit: 744 x 791 km, 74.0° (Epoch: 24 February)

Event Time Altitude Azimuth Distance (km) Brightness Sun altitude
Rises 20:49:10 0° 334° (NNW) 3,198 7.7 -39.1°
Reaches altitude 10° 20:51:32 10° 333° (NNW) 2,269 6.8 -39.4°
Enters shadow 20:51:47 11° 333° (NNW) 2,170 6.7 -39.4°
